STARLINK-11680, 63554

Orbit data source: Space-Track

STARLINK-11680, 63554 is a payload satellite owned by SpaceX/Seattle (US) in LEO that was launched on Sun, 13 Apr 2025 UTC via an FALCON 9 launch vehicle from the Air Force Eastern Test Range (AFETR). Payload-class satellites include a variety of spacecraft equipped with specific instruments for various scientific and technological missions. These include communications satellites like Starlink; space stations such as the ISS; scientific satellites like the Hubble; Earth observation satellites from companies like Planet Labs, Umbra, and HawkEye 360; GPS; miniature CubeSats for education and research; and military/defense satellites.

Loading next visibility...
Identifier
63554, 2025-075G
Orbit
LEO
Last TLE update
11 hours ago
Origin
Manufacturer
SpaceX/Seattle
Mission
Operational spacecraft
Bus & Motor
STARLINK V2M, Unknown motor
Mass
730 kg wet, ~700 kg dry
Launch date (UTC)
2025-04-13 (3 weeks ago)
Launch vehicle
FALCON 9
Launch site
Air Force Eastern Test Range (AFETR)
Object type
Payload
Rocket body
Debris
Shape & HBR
Unknown
Radar Cross Section
Large (>1 m²)

Expand to show TLE details & history

TLE from 11 hours ago
0 STARLINK-11680
1 63554U 25075G   25125.91667824 -.00063243  00000-0 -36280-3 0  9992
2 63554  42.9997 211.0467 0001615 281.6418 333.1127 15.77882991  4831
Epoch: 2025-05-05T22:00Z
Definitive object data (Epoch: 2025-05-05T22:00:00.999Z)
Latitude
-41.31213°
Longitude
-93.39205°
Altitude
348.024 km
Speed
7.701 km/s
True Right ascension
06h 42m 32s
True Declination
-41° 07' 53"
Sunlit
Object was in daylight at TLE epoch
Visualization TLE readout
Latitude
-43.02946°
Longitude
-70.21342°
Altitude
348.783 km
Speed
7.701 km/s
Apparent Right ascension
06h 28m 06s
Apparent Declination
-44° 35' 25"
Sunlit
Object is in daylight
Visualization observer readout
Local Sidereal Time
16:40:20
Azimuth
247.89° W
Elevation
-69.618°
Doppler factor
1
Orbital elements
Apogee altitude
339.512 km
Perigee altitude
337.343 km
Semi-major axis
6,716.564 km
Eccentricity
0.0001615
Inclination
42.9997°
RAAN
211.0467°
Arg. of periapsis
281.6418°
True anomaly
333.10433°
Mean anomaly
333.1127°
Eccentric anomaly
333.10851°
Mean motion
3.94296 °/min
BSTAR
-0.0003628
Orbital period
91.3 mins
Loading maneuver chart data...
Loading SW <> Apogee altitude chart data...
Loading historical data...
Loading historical data...
Loading historical data...
Loading historical data...
Loading historical data...
Loading historical data...
Loading historical data...

STARLINK-11680 Visibility forecast

Observer location: undefined°, undefined°

Span
Click to sort rows by Start time (UTC) header in descending order
Start Az.
Max El. time (UTC)
Max El. Az.
Max El.
End time (UTC)
End Az.
4 mins2025-05-06 09:17:57.405Z221.551° SW2025-05-06 09:19:57.405Z171.312° S31.151°2025-05-06 09:21:57.405Z91.76° ESE
4 mins2025-05-06 14:05:57.405Z273.514° WNW2025-05-06 14:07:57.405Z164.033° S35.438°2025-05-06 14:09:57.405Z126.962° SE
|